Wind_Speed
10 11 7 9 13 13 13 13 10 10 9 13 12 12 13 14 12 10 7 7 6 6 5 4 4 4 4 4 4 4 5 6 6 6 7 7 8 8 9 10 10 10 10
5 5 6 9 12 14 14 14 13 10 8 11 11 11 10 11 11 10 10 9 8 6 5 5 4 4 4 4 5 5 5 5 6 6 7 7 8 9 9 9 10 10 10
6 6 9 9 9 13 12 12 11 11 11 10 10 9 6 8 7 8 8 10 9 7 5 4 4 4 4 4 5 5 5 6 7 8 8 8 8 9 9 9 10 10 9
8 9 9 11 10 12 9 11 11 9 8 8 7 8 7 6 6 6 7 7 8 9 6 5 5 5 4 4 4 5 5 6 7 8 8 9 8 8 8 9 9 9 8
10 8 8 12 11 10 7 9 10 9 10 6 2 4 4 4 5 5 7 6 6 9 7 5 4 4 5 5 5 5 4 5 5 6 7 8 8 8 9 9 9 8 8
9 10 8 12 11 10 8 6 7 8 8 7 5 3 2 1 1 1 1 2 3 5 8 5 4 3 5 7 7 7 8 7 6 7 7 8 8 8 8 8 8 8 8
8 10 12 13 12 10 11 9 5 5 8 7 5 3 5 8 6 5 4 3 2 3 7 9 8 3 4 5 7 9 10 10 10 10 10 9 9 9 9 9 8 9 9
6 11 13 13 13 12 12 14 8 7 8 9 7 5 2 7 9 8 8 7 4 5 3 6 8 9 5 6 8 9 11 11 12 12 12 12 12 12 12 12 11 11 11
7 8 12 13 11 14 12 13 10 7 9 11 10 5 3 3 3 3 4 3 3 3 3 3 6 7 8 7 8 10 11 12 12 13 13 13 13 13 13 14 14 13 13
10 9 12 13 12 13 13 12 12 10 12 10 11 7 4 2 3 3 3 2 3 0 2 4 5 6 6 7 8 9 11 12 14 15 16 16 16 16 15 16 16 16 16
11 12 10 10 12 13 13 15 14 10 12 11 9 4 2 1 3 3 4 4 4 0 1 5 6 7 6 6 7 9 10 13 16 18 18 17 17 17 17 17 17 18 18
13 13 11 11 14 13 12 15 15 12 11 11 9 5 3 1 2 7 6 2 4 4 1 4 7 8 7 8 9 10 11 13 16 19 19 19 18 17 15 16 17 17 17
15 14 12 12 12 15 12 16 17 16 14 11 8 6 5 3 1 4 6 6 5 4 5 5 4 3 4 6 8 11 13 16 20 20 19 20 22 22 19 18 17 17 17
17 11 13 14 10 12 14 14 17 17 15 13 10 8 7 5 3 2 2 4 4 5 8 4 6 6 8 8 9 13 17 19 22 17 18 19 24 26 26 25 23 24 24
19 17 15 13 14 12 15 15 16 17 18 17 14 13 10 8 6 5 4 4 5 6 6 4 3 7 9 9 11 15 19 21 18 21 22 21 16 19 20 19 20 21 20
22 22 18 15 14 15 14 15 13 15 18 21 19 16 15 13 12 10 7 6 6 7 7 6 8 12 12 13 16 16 16 17 18 19 19 20 23 23 21 19 23 17 19
22 21 18 17 18 17 16 15 15 15 16 18 21 21 19 18 17 15 13 11 10 10 13 14 14 14 14 15 15 16 15 16 16 18 25 29 26 23 22 16 17 19 19
26 25 23 22 20 19 21 20 17 17 17 18 17 18 16 16 17 18 18 16 14 14 15 17 16 15 16 17 19 18 15 17 18 27 27 21 16 17 20 18 20 18 16
33 29 28 27 25 23 22 24 21 18 19 18 18 18 18 15 17 17 18 20 20 19 19 20 22 22 23 21 19 15 17 19 22 22 20 14 17 17 16 18 17 18 13
40 37 33 29 28 27 25 23 22 19 18 20 20 21 20 19 19 18 19 17 17 18 19 22 24 24 23 20 19 20 23 21 21 23 17 16 17 16 16 16 15 14 14
42 43 40 36 32 29 28 29 26 24 22 19 19 21 23 23 21 20 19 19 19 19 20 21 23 23 23 21 20 20 22 23 25 25 17 18 16 16 16 17 17 14 18
41 44 45 44 41 38 34 32 31 29 27 26 24 23 23 23 25 25 23 22 21 21 23 22 23 22 22 20 18 20 24 28 31 23 22 16 18 17 17 18 16 17 13
37 40 45 48 47 45 42 38 37 34 32 30 27 26 25 25 25 25 24 25 25 24 23 23 24 23 22 19 21 23 25 28 29 21 22 18 17 14 15 19 15 14 14
38 40 41 44 48 50 47 45 42 40 41 38 35 32 30 28 26 25 25 25 24 24 24 24 25 23 22 21 22 23 27 30 26 14 18 19 13 13 16 16 15 11 18
35 38 40 42 43 46 48 47 45 43 43 42 40 37 35 32 27 24 24 25 24 25 22 22 23 23 24 24 25 26 26 25 24 19 17 17 15 15 16 15 14 12 19
34 34 36 37 41 42 44 44 44 46 46 46 44 42 38 35 30 26 26 26 27 26 22 22 22 23 24 24 23 24 21 22 24 25 14 16 17 17 11 13 11 15 17
Wind_Direction
136 140 125 143 130 126 132 150 134 124 111 127 119 93 88 81 79 75 81 88 94 91 86 83 79 65 54 43 32 27 22 14 14 12 9 6 1 358 357 356 355 355 360
162 163 145 143 141 133 137 149 154 153 143 124 110 105 100 92 77 78 80 77 81 75 71 72 68 60 49 32 21 16 7 5 360 355 353 351 348 349 343 349 353 357 360
177 158 172 162 151 145 143 162 174 159 152 133 111 112 115 95 78 73 75 73 68 65 73 77 62 45 35 23 3 356 344 340 340 340 341 344 344 344 344 349 354 1 5
198 173 167 169 166 158 144 146 162 164 160 143 129 109 104 94 88 69 65 86 66 57 72 76 61 40 22 10 350 337 331 332 333 334 337 342 346 347 350 351 357 0 5
197 189 187 176 176 174 156 139 136 154 148 138 153 128 115 106 88 86 84 87 79 62 66 79 61 46 33 26 11 359 348 345 343 341 341 342 349 351 351 351 355 359 5
197 178 180 181 178 183 186 168 148 150 163 174 176 158 155 204 133 69 63 50 37 47 42 43 44 53 39 40 37 34 30 23 18 11 3 359 352 352 354 352 351 353 357
191 198 183 175 177 174 185 191 172 162 175 189 210 235 255 263 270 277 281 292 311 1 39 39 46 44 33 37 44 43 40 34 30 25 17 8 3 356 352 351 350 349 350
183 182 193 200 208 185 189 195 181 180 181 186 195 216 250 253 257 262 276 275 269 274 9 22 32 42 51 49 46 49 46 40 33 26 20 12 2 356 351 346 344 343 340
211 202 198 198 179 190 187 197 193 198 192 188 215 239 259 274 294 294 287 230 230 297 5 15 34 48 49 47 45 44 41 36 30 22 15 9 3 356 349 343 338 335 331
199 188 183 193 209 206 200 200 197 184 190 193 226 252 271 309 302 315 317 292 311 222 312 85 76 63 54 55 50 41 33 25 17 9 1 356 350 346 343 340 335 331 329
210 199 207 214 203 208 211 204 203 203 208 210 219 227 242 201 329 325 337 306 298 167 57 93 81 77 72 57 46 36 21 15 11 5 359 353 348 341 332 330 326 323 321
212 206 217 226 213 218 216 213 214 213 212 220 229 224 184 177 56 46 19 2 295 315 4 91 92 84 70 54 39 21 5 354 355 356 352 349 346 341 338 332 326 327 320
222 220 221 215 219 218 226 222 215 220 221 223 218 209 202 189 137 37 30 47 21 346 329 349 11 51 28 6 4 348 347 349 353 350 349 346 341 332 333 336 339 336 330
231 237 229 224 229 229 228 223 219 224 224 224 226 212 206 204 222 318 359 9 337 347 353 332 9 345 324 317 333 333 336 343 339 337 335 333 334 332 330 329 330 325 319
242 243 244 236 229 235 224 230 230 233 229 228 229 223 223 230 246 270 294 301 333 338 337 329 304 330 339 349 346 332 329 329 327 328 327 322 317 315 313 319 329 321 317
241 245 242 237 233 238 238 235 235 230 236 232 233 237 238 241 247 253 269 266 278 296 298 294 272 304 312 321 328 327 322 318 324 335 338 328 317 317 314 314 320 320 323
237 226 232 244 245 244 245 246 240 236 239 234 235 240 246 247 244 244 251 255 263 274 276 276 281 291 301 312 315 312 309 315 317 323 319 322 319 314 315 326 322 322 318
231 233 235 242 247 256 247 250 253 242 240 238 238 238 242 242 243 242 247 255 261 271 280 285 287 292 299 311 312 312 308 315 314 323 327 333 347 339 327 320 311 317 315
230 234 239 244 246 255 252 247 253 252 241 242 239 242 240 241 239 243 249 255 260 270 276 284 290 296 302 310 314 312 310 309 318 329 335 339 347 345 332 324 316 316 319
232 233 238 242 246 251 253 248 249 257 254 249 249 248 248 248 251 251 253 254 262 271 274 280 287 294 300 308 311 316 313 323 328 335 339 343 347 347 334 330 329 326 319
234 234 236 241 244 247 249 249 251 256 260 264 264 259 256 253 256 257 261 258 264 272 277 279 283 290 295 302 312 318 319 323 324 336 338 344 337 339 322 320 320 319 319
238 236 237 239 242 245 248 250 251 256 260 264 266 266 264 261 256 257 259 262 264 269 272 275 281 286 292 301 311 315 317 321 323 333 330 336 332 332 321 319 316 318 324
243 243 240 240 242 243 245 249 254 256 259 260 263 265 265 262 261 262 260 260 261 264 266 273 277 282 289 298 305 309 312 312 314 325 323 326 322 327 323 322 313 316 322
246 246 246 244 243 245 245 247 251 253 257 262 264 265 267 266 264 262 262 263 264 265 264 267 271 277 286 293 296 302 304 305 308 317 310 314 329 322 314 314 305 306 322
248 249 249 248 247 246 247 247 247 250 253 258 261 262 265 265 263 261 259 261 263 263 264 266 268 272 279 285 292 294 296 300 303 301 298 301 321 312 312 301 296 299 325
255 257 254 253 249 248 247 247 247 246 250 255 258 259 258 259 259 257 256 259 264 265 270 272 276 277 281 283 284 288 293 292 294 297 293 298 312 307 290 283 275 302 322
Height
1590 1592 1593 1594 1594 1595 1594 1595 1596 1596 1596 1596 1596 1597 1597 1597 1597 1597 1598 1597 1597 1598 1598 1598 1597 1597 1597 1598 1598 1598 1597 1596 1596 1595 1594 1593 1592 1591 1589 1588 1586 1585 1584
1592 1593 1594 1595 1596 1596 1597 1597 1598 1598 1598 1598 1598 1599 1600 1599 1600 1600 1600 1599 1599 1599 1599 1599 1598 1598 1598 1598 1598 1598 1598 1597 1597 1596 1595 1594 1592 1591 1590 1588 1587 1586 1584
1594 1594 1595 1596 1597 1598 1599 1599 1599 1600 1600 1600 1600 1601 1602 1602 1602 1602 1602 1602 1601 1601 1600 1600 1600 1600 1599 1599 1598 1598 1598 1597 1596 1596 1595 1594 1593 1591 1590 1589 1588 1586 1585
1594 1595 1596 1597 1598 1599 1599 1600 1601 1601 1602 1602 1603 1603 1603 1604 1604 1604 1604 1604 1603 1602 1602 1601 1601 1601 1601 1600 1599 1599 1598 1597 1597 1596 1595 1594 1593 1592 1591 1590 1588 1587 1586
1595 1595 1596 1597 1599 1601 1602 1602 1602 1603 1603 1603 1604 1605 1605 1606 1606 1606 1606 1606 1605 1604 1604 1603 1603 1602 1601 1600 1600 1599 1599 1598 1597 1596 1595 1594 1593 1592 1591 1590 1589 1588 1587
1596 1595 1597 1598 1600 1602 1603 1603 1604 1604 1605 1606 1606 1607 1607 1607 1608 1608 1607 1607 1607 1606 1605 1604 1603 1603 1602 1601 1601 1600 1600 1598 1597 1597 1596 1595 1594 1593 1592 1591 1590 1588 1587
1595 1596 1598 1599 1601 1602 1603 1605 1605 1605 1606 1607 1608 1608 1608 1608 1608 1608 1608 1608 1608 1607 1606 1605 1604 1603 1603 1603 1602 1602 1601 1600 1599 1597 1597 1596 1595 1594 1593 1592 1590 1589 1588
1595 1596 1598 1599 1600 1602 1603 1605 1606 1607 1608 1608 1609 1609 1609 1609 1607 1607 1607 1607 1607 1607 1607 1606 1605 1604 1604 1604 1603 1603 1602 1602 1601 1599 1598 1597 1596 1594 1593 1592 1590 1589 1588
1595 1596 1597 1599 1600 1602 1604 1605 1607 1608 1609 1610 1610 1611 1609 1608 1607 1606 1606 1606 1606 1607 1607 1607 1606 1606 1605 1605 1605 1605 1604 1603 1602 1601 1600 1598 1597 1595 1593 1592 1590 1588 1587
1595 1597 1598 1600 1601 1602 1604 1606 1607 1608 1610 1611 1611 1611 1610 1609 1608 1607 1606 1606 1606 1606 1607 1607 1607 1606 1606 1606 1606 1606 1605 1604 1603 1602 1601 1599 1597 1595 1594 1592 1590 1588 1586
1595 1597 1598 1600 1601 1602 1603 1605 1607 1608 1610 1611 1611 1611 1611 1610 1609 1608 1607 1606 1606 1606 1606 1606 1606 1606 1607 1607 1607 1607 1606 1605 1604 1603 1600 1598 1596 1594 1592 1590 1589 1586 1584
1594 1596 1597 1599 1601 1602 1603 1605 1607 1608 1610 1611 1611 1612 1612 1612 1611 1610 1608 1607 1607 1607 1607 1607 1607 1607 1607 1607 1607 1607 1605 1605 1603 1602 1599 1597 1595 1593 1590 1588 1585 1583 1581
1593 1594 1596 1598 1599 1601 1603 1604 1607 1608 1610 1611 1612 1612 1613 1613 1612 1611 1610 1609 1608 1608 1608 1608 1608 1608 1608 1608 1608 1607 1605 1604 1602 1600 1597 1595 1593 1590 1589 1586 1584 1581 1578
1592 1594 1595 1597 1599 1600 1602 1604 1606 1607 1609 1610 1611 1612 1613 1613 1613 1612 1611 1610 1610 1609 1609 1609 1609 1609 1609 1608 1607 1606 1604 1603 1601 1599 1596 1594 1592 1587 1585 1583 1581 1578 1575
1590 1592 1594 1596 1597 1599 1601 1603 1604 1606 1607 1609 1610 1611 1612 1613 1613 1612 1612 1612 1611 1610 1610 1610 1610 1610 1609 1608 1607 1605 1603 1601 1599 1596 1594 1591 1588 1585 1582 1579 1577 1574 1570
1587 1590 1592 1595 1596 1598 1600 1601 1603 1604 1606 1607 1609 1610 1611 1612 1612 1612 1612 1611 1611 1611 1611 1610 1610 1609 1608 1607 1606 1604 1602 1599 1598 1595 1592 1589 1585 1582 1578 1575 1573 1570 1567
1584 1587 1589 1592 1594 1596 1599 1600 1602 1603 1603 1605 1606 1608 1609 1610 1610 1610 1611 1610 1610 1609 1608 1608 1608 1607 1607 1606 1605 1603 1601 1598 1596 1592 1590 1585 1580 1577 1574 1571 1569 1567 1565
1581 1584 1586 1589 1591 1594 1596 1598 1599 1600 1601 1602 1604 1605 1606 1607 1607 1608 1609 1609 1608 1608 1607 1606 1605 1605 1604 1604 1602 1600 1598 1596 1593 1590 1586 1581 1578 1575 1572 1569 1566 1564 1562
1576 1579 1582 1585 1588 1590 1592 1594 1596 1598 1599 1600 1601 1602 1603 1604 1605 1606 1606 1606 1607 1606 1605 1603 1602 1602 1600 1600 1598 1597 1595 1593 1590 1587 1584 1580 1578 1574 1570 1566 1564 1562 1560
1569 1573 1576 1580 1583 1586 1588 1591 1593 1594 1595 1596 1598 1599 1600 1601 1602 1603 1603 1603 1604 1603 1603 1601 1599 1598 1597 1597 1595 1593 1590 1589 1586 1585 1582 1579 1576 1573 1568 1565 1562 1560 1558
1561 1566 1570 1573 1577 1580 1583 1586 1589 1590 1592 1593 1594 1595 1596 1597 1598 1599 1599 1600 1600 1600 1599 1597 1596 1594 1593 1593 1593 1590 1587 1585 1584 1581 1578 1576 1573 1571 1566 1563 1560 1558 1556
1553 1557 1561 1565 1568 1572 1576 1580 1583 1585 1587 1588 1588 1590 1591 1592 1593 1594 1595 1595 1596 1595 1594 1593 1592 1591 1589 1589 1589 1587 1584 1581 1578 1579 1575 1574 1571 1568 1563 1560 1557 1555 1552
1544 1547 1552 1556 1559 1563 1569 1573 1576 1579 1580 1581 1583 1584 1586 1587 1588 1589 1590 1590 1590 1590 1590 1590 1588 1587 1586 1586 1585 1583 1581 1578 1577 1575 1572 1571 1569 1565 1562 1559 1557 1555 1552
1534 1538 1542 1545 1550 1552 1559 1564 1569 1572 1573 1574 1576 1578 1580 1581 1583 1584 1584 1584 1584 1585 1585 1585 1583 1583 1583 1582 1581 1579 1577 1574 1572 1572 1570 1568 1566 1563 1560 1557 1555 1554 1552
1525 1529 1533 1537 1538 1542 1547 1554 1560 1563 1565 1566 1568 1571 1573 1575 1576 1578 1578 1578 1578 1577 1579 1579 1579 1579 1578 1578 1576 1574 1572 1570 1567 1567 1566 1563 1562 1560 1556 1554 1553 1552 1549
1517 1521 1524 1526 1529 1532 1536 1542 1549 1553 1555 1557 1559 1561 1564 1566 1568 1570 1571 1571 1570 1571 1574 1574 1574 1574 1573 1571 1570 1569 1568 1566 1565 1562 1563 1561 1559 1557 1554 1551 1550 1549 1547